Allentown, PA

4:24 AM EST on February 13, 2016 (GMT -0500)
Allentown

Weather History for KXLL - May, 2012

Change the Weather History Date:

Tuesday, May 22, 2012

  Actual Average (KABE) Record (KABE)
Temperature  
Mean Temperature 68 °F 62 °F  
Max Temperature 75 °F 73 °F 96 °F (1941)
Min Temperature 60 °F 50 °F 33 °F (2002)
Degree Days  
Heating Degree Days 0 5  
Month to date heating degree days 163  
Since 1 July heating degree days 5733  
Cooling Degree Days 2 2  
Month to date cooling degree days 18  
Year to date cooling degree days 23  
Growing Degree Days 18 (Base 50)    
Moisture  
Dew Point 60 °F    
Average Humidity 81    
Maximum Humidity 94    
Minimum Humidity 53    
Precipitation  
Precipitation 0.00 in 0.14 in 2.60 in (1942)
Month to date precipitation 2.85  
Year to date precipitation 15.53  
Snow  
Snow 0.00 in 0.00 in 0.00 in ()
Month to date snowfall 0.0  
Since 1 July snowfall 32.9  
Snow Depth -    
Sea Level Pressure  
Sea Level Pressure 29.88 in    
Wind  
Wind Speed 3 mph (ENE)    
Max Wind Speed 9 mph    
Max Gust Speed -    
Visibility 8 miles    
Events Rain    
T = Trace of Precipitation, MM = Missing Value Source: NWS Daily Summary

Daily Weather History Graph

Daily Weather History Graph

Search for Another Location

Airport or City:

Trip Planner

Search our weather history database for the weather conditions in past years. The results will help you decide how hot, cold, wet, or windy it might be!

Date:

Astronomy

May. 22, 2012 Rise Set
Actual Time 5:39 AM EDT 8:18 PM EDT
Civil Twilight 5:07 AM EDT 8:50 PM EDT
Nautical Twilight 4:27 AM EDT 9:30 PM EDT
Astronomical Twilight 3:42 AM EDT 10:15 PM EDT
Moon 6:47 AM EDT (5/22) 9:55 PM EDT (5/22)
Length of Visible Light 15h 43m
Length of Day
14h 39m
Waxing Crescent, 3% of the Moon is Illuminated
May 22
Waxing Crescent
May 28
First Quarter
Jun 4
Full
Jun 11
Last Quarter
Jun 19
New

Hourly Weather History & Observations

Time (EDT) Temp. Dew Point Humidity Pressure Visibility Wind Dir Wind Speed Gust Speed Precip Events Conditions
12:15 AM 62.6 °F 59.0 °F 88% 29.98 in 5.0 mi ENE 4.6 mph - N/A   Overcast
12:35 AM 60.8 °F 59.0 °F 94% 29.97 in 2.5 mi ENE 5.8 mph - N/A   Overcast
12:55 AM 60.8 °F 59.0 °F 94% 29.97 in 2.5 mi ENE 4.6 mph - N/A   Overcast
1:15 AM 60.8 °F 59.0 °F 94% 29.96 in 3.0 mi ENE 4.6 mph - N/A   Overcast
2:15 AM 60.8 °F 59.0 °F 94% 29.94 in 3.0 mi ENE 3.5 mph - N/A   Overcast
2:35 AM 60.8 °F 59.0 °F 94% 29.94 in 10.0 mi ENE 5.8 mph - N/A   Overcast
2:55 AM 60.8 °F 59.0 °F 94% 29.94 in 10.0 mi ENE 4.6 mph - N/A   Overcast
3:15 AM 60.8 °F 59.0 °F 94% 29.93 in 7.0 mi ENE 4.6 mph - N/A   Overcast
3:55 AM 60.8 °F 59.0 °F 94% 29.92 in 7.0 mi NE 3.5 mph - N/A   Overcast
4:15 AM 60.8 °F 59.0 °F 94% 29.91 in 10.0 mi ENE 6.9 mph - N/A   Overcast
4:35 AM 60.8 °F 59.0 °F 94% 29.91 in 10.0 mi NE 6.9 mph - N/A   Overcast
4:55 AM 60.8 °F 59.0 °F 94% 29.91 in 10.0 mi ENE 4.6 mph - N/A   Overcast
5:15 AM 60.8 °F 59.0 °F 94% 29.91 in 10.0 mi NE 3.5 mph - N/A   Overcast
5:35 AM 60.8 °F 59.0 °F 94% 29.91 in 7.0 mi Calm Calm - N/A   Overcast
5:55 AM 60.8 °F 59.0 °F 94% 29.91 in 7.0 mi Calm Calm - N/A   Overcast
6:15 AM 60.8 °F 59.0 °F 94% 29.91 in 4.0 mi Calm Calm - N/A   Overcast
6:35 AM 60.8 °F 59.0 °F 94% 29.91 in 5.0 mi Calm Calm - N/A   Overcast
6:55 AM 60.8 °F 59.0 °F 94% 29.92 in 1.5 mi Calm Calm - N/A   Overcast
7:15 AM 60.8 °F 59.0 °F 94% 29.91 in 1.8 mi Calm Calm - N/A   Overcast
7:35 AM 60.8 °F 59.0 °F 94% 29.91 in 1.5 mi Calm Calm - N/A   Overcast
7:55 AM 60.8 °F 59.0 °F 94% 29.91 in 1.2 mi NNE 3.5 mph - N/A   Overcast
8:15 AM 60.8 °F 59.0 °F 94% 29.91 in 2.5 mi NNE 3.5 mph - N/A   Overcast
8:55 AM 62.6 °F 59.0 °F 88% 29.91 in 10.0 mi Calm Calm - N/A   Overcast
9:15 AM 62.6 °F 59.0 °F 88% 29.92 in 7.0 mi Calm Calm - N/A   Overcast
9:35 AM 62.6 °F 60.8 °F 94% 29.91 in 5.0 mi NNE 4.6 mph - N/A   Overcast
9:55 AM 64.4 °F 60.8 °F 88% 29.91 in 10.0 mi NNE 6.9 mph - N/A   Overcast
10:15 AM 64.4 °F 59.0 °F 83% 29.91 in 10.0 mi NE 6.9 mph - N/A   Overcast
10:35 AM 64.4 °F 60.8 °F 88% 29.91 in 10.0 mi Calm Calm - N/A   Overcast
10:55 AM 66.2 °F 60.8 °F 83% 29.91 in 10.0 mi Calm Calm - N/A   Overcast
11:15 AM 66.2 °F 60.8 °F 83% 29.90 in 10.0 mi Calm Calm - N/A   Overcast
11:55 AM 68.0 °F 59.0 °F 73% 29.90 in 10.0 mi Calm Calm - N/A   Overcast
12:15 PM 68.0 °F 60.8 °F 78% 29.89 in 10.0 mi NW 4.6 mph - N/A   Overcast
12:35 PM 68.0 °F 59.0 °F 73% 29.88 in 10.0 mi Calm Calm - N/A   Overcast
12:55 PM 69.8 °F 59.0 °F 68% 29.88 in 10.0 mi Calm Calm - N/A   Overcast
1:15 PM 69.8 °F 59.0 °F 68% 29.87 in 10.0 mi Calm Calm - N/A   Overcast
1:55 PM 73.4 °F 59.0 °F 61% 29.86 in 10.0 mi Calm Calm - N/A   Mostly Cloudy
2:15 PM 71.6 °F 59.0 °F 64% 29.86 in 10.0 mi Calm Calm - N/A   Overcast
2:35 PM 71.6 °F 59.0 °F 64% 29.85 in 10.0 mi Calm Calm - N/A   Overcast
2:55 PM 71.6 °F 59.0 °F 64% 29.84 in 10.0 mi NNW 4.6 mph - N/A   Overcast
3:15 PM 73.4 °F 59.0 °F 61% 29.84 in 10.0 mi NE 3.5 mph - N/A   Overcast
3:35 PM 73.4 °F 59.0 °F 61% 29.84 in 10.0 mi Calm Calm - N/A   Overcast
4:15 PM 75.2 °F 59.0 °F 57% 29.82 in 10.0 mi Calm Calm - N/A   Overcast
4:35 PM 75.2 °F 57.2 °F 53% 29.82 in 10.0 mi Calm Calm - N/A   Mostly Cloudy
4:55 PM 73.4 °F 57.2 °F 57% 29.82 in 10.0 mi Calm Calm - N/A   Scattered Clouds
5:15 PM 75.2 °F 57.2 °F 53% 29.82 in 10.0 mi Calm Calm - N/A   Mostly Cloudy
5:35 PM 73.4 °F 59.0 °F 61% 29.82 in 10.0 mi Calm Calm - N/A   Mostly Cloudy
5:55 PM 73.4 °F 59.0 °F 61% 29.81 in 10.0 mi ESE 5.8 mph - N/A   Overcast
6:15 PM 73.4 °F 59.0 °F 61% 29.81 in 10.0 mi SE 3.5 mph - N/A   Overcast
6:35 PM 73.4 °F 60.8 °F 65% 29.82 in 10.0 mi SSE 5.8 mph - N/A   Overcast
6:55 PM 73.4 °F 59.0 °F 61% 29.82 in 10.0 mi SE 4.6 mph - N/A   Overcast
7:15 PM 69.8 °F 62.6 °F 78% 29.84 in 10.0 mi SE 3.5 mph - N/A Rain Light Rain
7:35 PM 68.0 °F 62.6 °F 83% 29.84 in 3.0 mi NNE 4.6 mph - N/A Rain Heavy Rain
7:55 PM 68.0 °F 62.6 °F 83% 29.84 in 5.0 mi ESE 9.2 mph - N/A Rain Light Rain
8:15 PM - - N/A% 29.84 in 10.0 mi SE 3.5 mph - N/A   Overcast
8:35 PM - - N/A% 29.84 in 10.0 mi ESE 3.5 mph - N/A   Overcast
8:55 PM - - N/A% 29.84 in 10.0 mi ESE 5.8 mph - N/A   Overcast
9:15 PM - - N/A% 29.85 in 10.0 mi Calm Calm - N/A   Overcast
9:35 PM - - N/A% 29.85 in 10.0 mi Calm Calm - N/A   Overcast
9:55 PM 68.0 °F 62.6 °F 83% 29.86 in 10.0 mi Calm Calm - N/A   Overcast
10:15 PM 68.0 °F 62.6 °F 83% 29.86 in 10.0 mi Calm Calm - N/A   Overcast
10:35 PM 68.0 °F 62.6 °F 83% 29.87 in 10.0 mi Calm Calm - N/A   Overcast
10:55 PM 66.2 °F 62.6 °F 88% 29.87 in 10.0 mi East 4.6 mph - N/A   Overcast
11:15 PM 66.2 °F 62.6 °F 88% 29.87 in 10.0 mi East 3.5 mph - N/A   Overcast
11:35 PM 66.2 °F 62.6 °F 88% 29.87 in 10.0 mi ENE 4.6 mph - N/A   Overcast